Simultaneous Nadir Overpasses (SNOs) Predictions

Prediction of SNOs between AURA and NPP Satellite Orbit:

Table of predicted SNOs for the next 14.0 days since TLE Epoch: 5/20/2016
Index Date (AURA) Time (AURA) Lat,Lon (AURA) SZA (AURA ) Date (NPP) Time (NPP) Lat,Lon (NPP) SZA (NPP ) Distance(km) Time Diff (sec)
1 05/21/2016 18:19:15 79.04, 158.99 72.89 05/21/2016 18:18:14 79.04, 158.90 72.95 1.93 61
2 05/21/2016 19:08:34 -79.36, -31.36 107.58 05/21/2016 19:08:50 -79.36, -31.41 107.58 1.15 16
3 05/24/2016 10:35:37 79.21, -84.08 72.16 05/24/2016 10:35:03 79.22, -84.03 72.17 1.19 34
4 05/24/2016 11:24:57 -79.49, 85.38 108.25 05/24/2016 11:25:40 -79.50, 85.47 108.30 1.97 43
5 05/27/2016 02:52:02 79.29, 32.32 71.60 05/27/2016 02:51:56 79.29, 32.28 71.62 0.91 6
6 05/27/2016
